This demonstration page uses our WeatherBlox Daily Observations layout. Learn more.

Left ArrowRight Arrow

47.50024, -111.30081

Hourly Observations for May 16, 2015

Temp ( °F °C ) Dew Point ( °F °C ) Humidity (%) Winds ( mph kmh ) Pressure ( in mb ) Visibility ( mi km ) Precip ( " mm )
12:53 am 00:53 Cloudy with Light Rain 46 7.8 46 7.8 100 100 NNE 10 17 29.75 1008 0 0 0.03 0.76
1:01 am 01:01 Cloudy with Light Rain 46 7.8 46 7.8 100 100 N 9 15 29.71 1006 1 1 0.00 0.03
1:53 am 01:53 Cloudy with Light Rain 46 7.8 46 7.8 100 100 NNE 9 15 29.73 1007 1 1 0.01 0.25
2:03 am 02:03 Mostly Cloudy with Light Rain 46 8 46 8 100 100 NNE 12 19 29.68 1005 0 0 0.00 0.00
2:53 am 02:53 Cloudy with Mist and Fog 46 7.8 46 7.8 100 100 NNE 12 19 29.72 1007 1 1 0.00 0.03
3:03 am 03:03 Cloudy with Mist and Fog 46 8 46 8 100 100 NNE 10 17 29.68 1005 3 4 0.00 0.00
3:16 am 03:16 Cloudy 46 8 46 8 100 100 N 9 15 29.68 1005 8 13 0.00 0.00
3:23 am 03:23 Cloudy with Mist and Fog 46 7.8 46 7.8 100 100 N 9 15 29.68 1005 0 0 0.00 0.00
3:53 am 03:53 Cloudy with Mist and Fog 46 7.8 45 7.2 96 96 N 10 17 29.72 1007 1 1 0.00 0.00
4:36 am 04:36 Cloudy with Mist and Fog 46 7.8 45 7.2 96 96 N 12 19 29.68 1005 0 0 0.00 0.00
4:53 am 04:53 Mostly Cloudy with Fog 46 7.8 45 7.2 96 96 N 13 20 29.72 1006 0 0 0.00 0.00
5:53 am 05:53 Mostly Cloudy with Light Rain 46 7.8 45 7.2 96 96 N 10 17 29.71 1006 0 0 0.01 0.25
6:53 am 06:53 Mostly Cloudy with Light Rain 46 7.8 46 7.8 100 100 N 9 15 29.72 1006 0 0 0.05 1.27
7:53 am 07:53 Cloudy with Rain 46 7.8 45 7.2 96 96 N 14 22 29.72 1006 0 0 0.06 1.52
8:27 am 08:27 Cloudy with Rain 45 7 45 7 100 100 N 9 15 29.71 1006 1 2 0.00 0.00
8:53 am 08:53 Cloudy with Rain 45 7.2 44 6.7 97 97 N 13 20 29.72 1006 3 4 0.14 3.56
9:53 am 09:53 Cloudy with Light Rain 45 7.2 44 6.7 97 97 N 10 17 29.73 1007 3 4 0.09 2.29
10:14 am 10:14 Cloudy with Light Rain 45 7 45 7 100 100 NNE 16 26 29.71 1006 2 3 0.00 0.00
10:25 am 10:25 Cloudy with Light Rain 45 7 45 7 100 100 NNE 14 22 29.71 1006 2 3 0.00 0.00
10:53 am 10:53 Cloudy with Rain 46 7.8 45 7.2 96 96 NNE 15 24 29.74 1007 3 5 0.08 2.03
11:28 am 11:28 Cloudy with Light Rain 46 8 45 7 93 93 N 16 26 29.68 1005 3 5 0.00 0.00
11:53 am 11:53 Cloudy with Light Rain 46 7.8 46 7.8 100 100 N 15 24 29.75 1008 6 10 0.09 2.29
12:53 pm 12:53 Cloudy with Rain 47 8.3 45 7.2 93 93 N 17 28 29.75 1008 6 10 0.07 1.78
1:53 pm 13:53 Cloudy with Rain 46 7.8 45 7.2 96 96 NNE 20 31 29.78 1008 4 6 0.10 2.54
2:14 pm 14:14 Cloudy with Light Rain 46 7.8 44 6.7 93 93 NNE 23 37 29.77 1008 5 8 0.02 0.51
2:50 pm 14:50 Cloudy with Light Rain 45 7 43 6 93 93 NNE 28 44 29.77 1008 4 6 0.00 0.00
2:53 pm 14:53 Cloudy with Rain 44 6.7 42 5.6 93 93 NNE 26 43 29.82 1010 4 6 0.06 1.52
3:03 pm 15:03 Cloudy with Light Rain 45 7 41 5 87 87 N 22 35 29.80 1009 7 11 0.00 0.00
3:53 pm 15:53 Cloudy with Light Rain 44 6.7 42 5.6 93 93 N 22 35 29.85 1011 7 11 0.04 1.02
4:11 pm 16:11 Cloudy with Rain 44 6.7 42 5.6 93 93 N 21 33 29.83 1010 5 8 0.01 0.25
4:53 pm 16:53 Cloudy with Light Rain 44 6.7 42 5.6 93 93 NNE 22 35 29.89 1012 5 8 0.08 2.03
4:58 pm 16:58 Cloudy with Light Rain 45 7 43 6 93 93 NNE 21 33 29.88 1012 6 10 0.00 0.00
5:21 pm 17:21 Cloudy with Light Rain 43 6 39 4 87 87 NNE 18 30 29.91 1013 5 8 0.00 0.00
5:53 pm 17:53 Cloudy with Light Rain 44 6.7 41 5 89 89 NNE 15 24 29.93 1014 5 8 0.05 1.27
6:21 pm 18:21 Cloudy with Light Rain 44 6.7 42 5.6 93 93 NNE 15 24 29.94 1014 4 6 0.02 0.51
6:46 pm 18:46 Cloudy with Light Rain 44 6.7 42 5.6 93 93 NE 16 26 29.94 1014 4 6 0.05 1.27
6:53 pm 18:53 Cloudy with Light Rain 43 6.1 42 5.6 97 97 NE 18 30 29.96 1015 5 8 0.05 1.27
7:53 pm 19:53 Cloudy with Light Rain 43 6.1 41 5 93 93 NNE 14 22 30.00 1016 4 6 0.06 1.52
8:01 pm 20:01 Cloudy with Light Rain 43 6.1 41 5 93 93 NE 22 35 29.97 1015 3 5 0.01 0.25
8:38 pm 20:38 Cloudy with Light Rain 43 6 41 5 93 93 NNE 13 20 29.97 1015 4 6 0.00 0.00
8:43 pm 20:43 Cloudy with Light Rain 42 5.6 41 5 96 96 NNE 12 19 29.97 1015 4 6 0.06 1.52
8:53 pm 20:53 Cloudy with Light Rain 42 5.6 40 4.4 92 92 NE 15 24 30.04 1017 6 10 0.07 1.78
9:18 pm 21:18 Cloudy with Light Rain 41 5 39 4 93 93 NE 10 17 30.03 1017 8 13 0.00 0.00
9:53 pm 21:53 Cloudy with Light Rain 42 5.6 40 4.4 92 92 N 8 13 30.06 1018 8 13 0.03 0.76
10:07 pm 22:07 Cloudy with Light Rain 41 5 41 5 100 100 N 7 11 30.03 1017 7 11 0.00 0.03
10:53 pm 22:53 Cloudy with Light Rain 42 5.6 41 5 96 96 N 9 15 30.06 1018 6 10 0.03 0.76
11:27 pm 23:27 Cloudy with Light Rain 42 5.6 41 5 96 96 N 14 22 30.06 1018 7 11 0.01 0.25
11:34 pm 23:34 Cloudy with Light Rain 43 6 41 5 93 93 NNE 16 26 30.06 1018 8 13 0.00 0.00
11:41 pm 23:41 Cloudy with Light Rain 42 5.6 40 4.4 92 92 NNE 16 26 30.06 1018 8 13 0.01 0.25
11:53 pm 23:53 Cloudy with Light Rain 42 5.6 40 4.4 92 92 N 12 19 30.08 1019 8 13 0.02 0.51

Powered by AerisWeather